[[{"header":{"parameterUnit":"m.s-1","parameterCategory":1,"la1":30.2991,"la2":30.254,"lo1":-89.0895,"lo2":-89.0444,"dy":0.0017,"dx":0.0017,"nx":28,"ny":28,"refTime":"2025-08-04T09:00:00:Z","depth":0,"parameterNumber":2,"parameterNumberName":"U-component_of_WINDS"},"data":[0,0,0,0,0,0,0,0,0,0,0,0,0,0,0,0,0,0,0,0,0,0,0,0,0,0,0,0,0,0,0,0,0,0,0,0,0,0,0,0,0,0,0,0,0,0,0,0,0,0,0,0,0,0,0,0,0,0,-3.085,-3.085,0,-3.0825,-3.0825,-3.0825,-3.0757,-3.0756,-3.0754,-3.0753,-3.0729,-3.073,-3.073,0,0,0,0,0,0,0,0,0,0,0,0,0,-3.0843,-3.0844,-3.085,-3.085,-3.085,-3.0825,-3.0825,-3.0824,-3.0758,-3.0756,-3.0754,-3.0752,-3.0729,-3.073,-3.073,0,0,0,0,0,0,0,0,0,0,0,0,0,-3.0835,-3.0844,-3.085,-3.0813,-3.081,-3.0825,-3.0825,-3.0824,-3.0758,-3.0756,-3.0754,-3.0752,-3.0728,-3.073,-3.0731,-3.078,0,0,-3.0734,-3.0734,0,0,0,0,0,0,0,0,-3.0836,-3.0835,-3.0819,-3.0816,-3.0812,-3.0792,-3.0813,-3.081,-3.0758,-3.0778,-3.0753,-3.075,-3.0752,-3.0751,-3.0751,-3.0779,-3.0778,-3.0734,-3.0735,-3.0735,-3.0735,0,0,0,0,0,0,0,-3.0836,-3.0836,-3.084,-3.0819,-3.0815,-3.0799,-3.0795,-3.0812,-3.0777,-3.0776,-3.0771,-3.0769,-3.0749,-3.075,-3.075,-3.0778,-3.0734,-3.0735,-3.0735,-3.0736,-3.0845,-3.0848,0,0,0,0,0,0,-3.0842,-3.0837,-3.0841,-3.084,-3.0819,-3.0801,-3.0797,-3.0801,-3.0777,-3.0771,-3.0771,-3.0766,-3.0749,-3.0749,-3.0749,-3.0804,-3.0735,-3.0736,-3.0737,-3.0843,-3.0846,-3.0848,0,0,0,0,0,0,-3.0842,-3.0843,-3.0842,-3.0837,-3.0836,-3.0803,-3.0808,-3.0801,-3.0802,-3.0773,-3.0767,-3.0777,-3.0748,-3.0747,-3.0773,-3.0802,-3.0736,-3.0737,-3.0841,-3.0844,-3.0847,-3.0916,0,0,0,0,0,0,-3.0842,-3.0843,-3.0861,-3.0838,-3.0836,-3.0866,-3.081,-3.0802,-3.0803,-3.0797,-3.0778,-3.0772,-3.0746,-3.0772,-3.0774,-3.0803,-3.0738,-3.0838,-3.0842,-3.0846,-3.0911,-3.0922,-3.0931,0,0,0,0,0,-3.0842,-3.0882,-3.0862,-3.0863,-3.0858,-3.0868,-3.0867,-3.0835,-3.0806,-3.0824,-3.0806,-3.0773,-3.08,-3.0775,-3.0777,-3.0806,-3.0836,-3.0841,-3.0846,-3.0907,-3.092,-3.0931,0,0,0,0,0,0,-3.091,-3.0878,-3.0856,-3.089,-3.0882,-3.0856,-3.0878,-3.085,-3.085,-3.0844,-3.0806,-3.0802,-3.0833,-3.0823,-3.0795,-3.0853,-3.0812,-3.0818,-3.0858,-3.087,-3.088,-3.088,-3.0739,0,0,0,0,0,-3.0929,-3.0939,-3.0911,-3.0944,-3.0941,-3.0911,-3.0914,-3.089,-3.0881,-3.0877,-3.0861,-3.0853,-3.086,-3.0865,-3.0869,-3.0911,-3.0905,-3.0932,-3.0942,-3.095,-3.0955,-3.0975,-3.0986,-3.0865,-3.0865,-3.0865,0,0,-3.0968,-3.0952,-3.0961,-3.0957,-3.0948,-3.096,-3.0908,-3.0923,-3.0931,-3.088,-3.0901,-3.089,-3.0879,-3.0913,-3.0926,-3.0905,-3.0987,-3.0957,-3.0963,-3.0963,-3.0981,-3.0993,-3.1003,-3.0869,-3.0868,-3.0868,0,0,-3.1045,-3.1034,-3.1059,-3.1052,-3.1039,-3.1019,-3.1025,-3.1004,-3.0994,-3.1016,-3.0977,-3.0988,-3.1,-3.0993,-3.0992,-3.1068,-3.1037,-3.1071,-3.1121,-3.1141,-3.115,-3.1159,-3.1184,-3.1194,-3.1077,-3.1077,-3.1077,0,-3.1095,-3.111,-3.1076,-3.1093,-3.1092,-3.1047,-3.1072,-3.1067,-3.1057,-3.1057,-3.1034,-3.1048,-3.1038,-3.1069,-3.1087,-3.1089,-3.1094,-3.1071,-3.1152,-3.116,-3.1167,-3.119,-3.12,-3.1081,-3.108,-3.108,-3.1079,0,-3.1171,-3.1183,-3.1205,-3.1195,-3.1198,-3.1219,-3.1189,-3.1196,-3.1173,-3.1156,-3.1179,-3.1165,-3.1166,-3.1172,-3.115,-3.12,-3.1187,-3.1159,-3.1116,-3.1183,-3.1204,-3.1213,-3.1086,-3.1085,-3.1084,-3.1083,0,0,-3.1287,-3.126,-3.1268,-3.1263,-3.1246,-3.1255,-3.1275,-3.1275,-3.1281,-3.1277,-3.1291,-3.1304,-3.1277,-3.1276,-3.1253,-3.1271,-3.1331,-3.124,-3.124,-3.1256,-3.1383,-3.1402,-3.1413,-3.1312,-3.1313,-3.1315,-3.1383,0,-3.1357,-3.1388,-3.1359,-3.1395,-3.1405,-3.1363,-3.138,-3.1373,-3.1358,-3.1364,-3.1348,-3.1357,-3.1322,-3.1321,-3.1337,-3.132,-3.1355,-3.1315,-3.1324,-3.1325,-3.1325,-3.1425,-3.1445,-3.151,-3.1392,-3.1393,-3.1394,0,-3.1442,-3.144,-3.1478,-3.1459,-3.1462,-3.1478,-3.1475,-3.1483,-3.1474,-3.1461,-3.1461,-3.1433,-3.1452,-3.1413,-3.1438,-3.1411,-3.1414,-3.1407,-3.1408,-3.1405,-3.1361,-3.1422,-3.153,-3.1539,-3.1407,-3.1406,-3.1405,0,-3.152,-3.1528,-3.155,-3.1548,-3.1527,-3.1539,-3.1531,-3.152,-3.1522,-3.1521,-3.1521,-3.1524,-3.1524,-3.1526,-3.15,-3.1474,-3.1528,-3.1487,-3.1518,-3.1518,-3.1528,-3.1527,-3.1635,-3.1535,-3.1535,-3.1535,-3.1535,0,-3.1599,-3.1623,-3.1585,-3.1598,-3.1624,-3.1592,-3.1619,-3.1607,-3.1598,-3.1609,-3.1574,-3.1586,-3.1552,-3.156,-3.1541,-3.1563,-3.1565,-3.1555,-3.1549,-3.1556,-3.1557,-3.1555,-3.1549,-3.1537,-3.1537,-3.1536,-3.1536,0,-3.1688,-3.1664,-3.1686,-3.1665,-3.166,-3.168,-3.1662,-3.1674,-3.1658,-3.1673,-3.1674,-3.1649,-3.1656,-3.1632,-3.1636,-3.1623,-3.1655,-3.1644,-3.1658,-3.1653,-3.1684,-3.1681,-3.1792,-3.1805,-3.1699,-3.1701,-3.1701,0,-3.1739,-3.1756,-3.1737,-3.1741,-3.1735,-3.1744,-3.1745,-3.1716,-3.1719,-3.1711,-3.1724,-3.1729,-3.1731,-3.1746,-3.1728,-3.1731,-3.1717,-3.1756,-3.1717,-3.1724,-3.1715,-3.1713,-3.1714,-3.1763,-3.1764,-3.1766,-3.1766,0,-3.183,-3.1818,-3.1821,-3.1821,-3.1824,-3.1823,-3.1819,-3.1825,-3.1793,-3.1799,-3.1806,-3.1808,-3.1813,-3.1818,-3.1817,-3.181,-3.1783,-3.178,-3.1786,-3.1792,-3.1799,-3.1793,-3.1677,-3.1776,-3.1775,-3.1774,-3.1774,-3.1773,-3.19,-3.1913,-3.1901,-3.1906,-3.1901,-3.1898,-3.1908,-3.1894,-3.1899,-3.1899,-3.1883,-3.1893,-3.1885,-3.1881,-3.1877,-3.1885,-3.1867,-3.1877,-3.1879,-3.1881,-3.1886,-3.18,-3.1885,-3.1885,-3.1885,-3.1884,-3.1884,0,-3.1987,-3.1978,-3.1984,-3.1979,-3.1984,-3.1959,-3.1954,-3.1959,-3.1969,-3.1963,-3.1966,-3.1974,-3.198,-3.1963,-3.1966,-3.1976,-3.1963,-3.1977,-3.1975,-3.1973,-3.1903,-3.1895,-3.1987,-3.1987,-3.1987,-3.1987,-3.1987,-3.1987,-3.2033,-3.2053,-3.204,-3.2057,-3.2048,-3.2057,-3.2057,-3.2054,-3.2049,-3.206,-3.2064,-3.2054,-3.2043,-3.2046,-3.2049,-3.2045,-3.2046,-3.2064,-3.2054,-3.1988,-3.1978,-3.1968,-3.1961,-3.2065,-3.2065,-3.2123,-3.2124,-3.2124]},{"header":{"parameterUnit":"m.s-1","parameterCategory":1,"la1":30.2991,"la2":30.254,"lo1":-89.0895,"lo2":-89.0444,"dy":0.0017,"dx":0.0017,"nx":28,"ny":28,"refTime":"2025-08-04T09:00:00:Z","depth":0,"parameterNumber":3,"parameterNumberName":"V-component_of_WINDS"},"data":[0,0,0,0,0,0,0,0,0,0,0,0,0,0,0,0,0,0,0,0,0,0,0,0,0,0,0,0,0,0,0,0,0,0,0,0,0,0,0,0,0,0,0,0,0,0,0,0,0,0,0,0,0,0,0,0,0,0,-1.905,-1.9051,0,-1.9175,-1.9176,-1.9178,-1.9243,-1.9243,-1.9243,-1.9243,-1.9365,-1.9368,-1.9372,0,0,0,0,0,0,0,0,0,0,0,0,0,-1.8862,-1.8865,-1.905,-1.9051,-1.9053,-1.9175,-1.9176,-1.9178,-1.9243,-1.9243,-1.9243,-1.9243,-1.9364,-1.9368,-1.9372,0,0,0,0,0,0,0,0,0,0,0,0,0,-1.8961,-1.8866,-1.905,-1.91,-1.9106,-1.9174,-1.9176,-1.9178,-1.9243,-1.9243,-1.9243,-1.9243,-1.9363,-1.9368,-1.9372,-1.9398,0,0,-1.9387,-1.9389,0,0,0,0,0,0,0,0,-1.8955,-1.8967,-1.9091,-1.9097,-1.9103,-1.9194,-1.9155,-1.9252,-1.9243,-1.9191,-1.9243,-1.9243,-1.9308,-1.9317,-1.934,-1.9404,-1.9409,-1.9387,-1.939,-1.9392,-1.9394,0,0,0,0,0,0,0,-1.8948,-1.8962,-1.9099,-1.9093,-1.91,-1.9115,-1.9129,-1.9174,-1.9246,-1.9195,-1.92,-1.9214,-1.9311,-1.9335,-1.9343,-1.9411,-1.9387,-1.9391,-1.9394,-1.9396,-1.9502,-1.9502,0,0,0,0,0,0,-1.8934,-1.8956,-1.9095,-1.9103,-1.9028,-1.9118,-1.9134,-1.9164,-1.9246,-1.9259,-1.9214,-1.9217,-1.9327,-1.9338,-1.9348,-1.9384,-1.9392,-1.9397,-1.9399,-1.9502,-1.9502,-1.9502,0,0,0,0,0,0,-1.893,-1.8946,-1.909,-1.9031,-1.9051,-1.9121,-1.9155,-1.9167,-1.9191,-1.9261,-1.9273,-1.9226,-1.9328,-1.9341,-1.9386,-1.9389,-1.9399,-1.9403,-1.9502,-1.9502,-1.9502,-1.9455,0,0,0,0,0,0,-1.8924,-1.8944,-1.8956,-1.9031,-1.9054,-1.9127,-1.9155,-1.9169,-1.92,-1.9205,-1.9275,-1.9287,-1.9329,-1.9378,-1.939,-1.9395,-1.9407,-1.9502,-1.9502,-1.9502,-1.9456,-1.9453,-1.945,0,0,0,0,0,-1.8917,-1.8936,-1.8956,-1.8972,-1.907,-1.9128,-1.914,-1.919,-1.92,-1.9211,-1.9256,-1.9285,-1.9386,-1.9382,-1.9396,-1.9403,-1.9502,-1.9502,-1.9502,-1.9458,-1.9454,-1.9451,0,0,0,0,0,0,-1.8858,-1.8947,-1.897,-1.9015,-1.9063,-1.9138,-1.9155,-1.9184,-1.9229,-1.9232,-1.929,-1.9305,-1.9344,-1.9378,-1.9372,-1.9432,-1.9447,-1.945,-1.9408,-1.9405,-1.9402,-1.9393,-1.9411,0,0,0,0,0,-1.885,-1.8891,-1.8966,-1.8998,-1.9022,-1.9084,-1.9111,-1.9145,-1.9196,-1.9217,-1.9265,-1.9312,-1.9355,-1.9382,-1.9425,-1.9462,-1.9477,-1.9473,-1.947,-1.9467,-1.9469,-1.9489,-1.9488,-1.9502,-1.9502,-1.9502,0,0,-1.8834,-1.8888,-1.891,-1.8988,-1.9029,-1.9069,-1.9101,-1.9141,-1.917,-1.9222,-1.9268,-1.9304,-1.9361,-1.9402,-1.9422,-1.9431,-1.9468,-1.9467,-1.9464,-1.9467,-1.9489,-1.9488,-1.9487,-1.9502,-1.9502,-1.9502,0,0,-1.8825,-1.8871,-1.8902,-1.8944,-1.9007,-1.9049,-1.9056,-1.9127,-1.9154,-1.9201,-1.9241,-1.9275,-1.9348,-1.9387,-1.9416,-1.9421,-1.9449,-1.9434,-1.9418,-1.9437,-1.9436,-1.9436,-1.9437,-1.9437,-1.9435,-1.9435,-1.9435,0,-1.8797,-1.886,-1.8914,-1.8953,-1.8985,-1.9036,-1.9068,-1.9104,-1.9177,-1.9198,-1.9208,-1.93,-1.9342,-1.9392,-1.9393,-1.9415,-1.9424,-1.9426,-1.9432,-1.9432,-1.9432,-1.9434,-1.9435,-1.9433,-1.9433,-1.9433,-1.9433,0,-1.8822,-1.8864,-1.8882,-1.8954,-1.8988,-1.9022,-1.908,-1.9108,-1.9139,-1.9178,-1.9224,-1.9277,-1.9331,-1.9345,-1.9375,-1.9399,-1.9403,-1.9422,-1.9438,-1.9428,-1.9431,-1.9432,-1.9429,-1.943,-1.9431,-1.9431,0,0,-1.8779,-1.8881,-1.8886,-1.8919,-1.8993,-1.9026,-1.9062,-1.9117,-1.9139,-1.9188,-1.9218,-1.9279,-1.9297,-1.933,-1.9364,-1.9381,-1.9381,-1.9398,-1.94,-1.9393,-1.941,-1.9395,-1.9395,-1.94,-1.9401,-1.9401,-1.9405,0,-1.878,-1.885,-1.89,-1.8949,-1.8989,-1.9037,-1.9069,-1.9116,-1.9154,-1.9191,-1.9232,-1.9274,-1.9295,-1.9315,-1.9334,-1.9377,-1.9386,-1.9378,-1.9428,-1.9429,-1.9412,-1.9397,-1.9381,-1.9383,-1.9407,-1.9407,-1.9407,0,-1.8792,-1.884,-1.8894,-1.8964,-1.8982,-1.9009,-1.9064,-1.9099,-1.9153,-1.9179,-1.9216,-1.9252,-1.929,-1.9303,-1.9356,-1.9349,-1.9372,-1.9396,-1.9398,-1.9404,-1.9417,-1.9402,-1.9385,-1.9384,-1.9409,-1.9409,-1.9409,0,-1.8754,-1.8833,-1.8876,-1.8902,-1.8984,-1.9002,-1.9037,-1.9091,-1.9121,-1.9168,-1.9187,-1.9237,-1.9264,-1.93,-1.9348,-1.9353,-1.9395,-1.9412,-1.9416,-1.9415,-1.9423,-1.9422,-1.9408,-1.9438,-1.9438,-1.9438,-1.9438,0,-1.875,-1.8781,-1.886,-1.8886,-1.8922,-1.8978,-1.9011,-1.9049,-1.9097,-1.913,-1.9174,-1.9203,-1.9265,-1.9301,-1.9338,-1.9375,-1.9387,-1.9408,-1.9417,-1.9404,-1.9401,-1.9419,-1.942,-1.9438,-1.9438,-1.9438,-1.9438,0,-1.8715,-1.8769,-1.8819,-1.8893,-1.8912,-1.8934,-1.8997,-1.9023,-1.9063,-1.9104,-1.9117,-1.9179,-1.9224,-1.9275,-1.9336,-1.9361,-1.9396,-1.941,-1.9378,-1.9383,-1.9384,-1.9383,-1.9382,-1.9384,-1.9413,-1.9412,-1.9412,0,-1.8709,-1.8734,-1.8811,-1.8837,-1.8871,-1.8912,-1.8943,-1.8999,-1.9029,-1.9092,-1.911,-1.9159,-1.9201,-1.927,-1.932,-1.9366,-1.9381,-1.9378,-1.9389,-1.9374,-1.9381,-1.9378,-1.9381,-1.9374,-1.9374,-1.9373,-1.9373,0,-1.8691,-1.8717,-1.8762,-1.8815,-1.8851,-1.8896,-1.8941,-1.896,-1.9024,-1.9055,-1.9103,-1.9135,-1.9199,-1.9246,-1.9299,-1.9332,-1.9363,-1.9369,-1.9373,-1.9359,-1.9339,-1.9349,-1.9369,-1.9369,-1.9369,-1.937,-1.937,-1.937,-1.867,-1.8695,-1.8753,-1.88,-1.8841,-1.8883,-1.8911,-1.8955,-1.8997,-1.9054,-1.9084,-1.913,-1.9183,-1.9258,-1.929,-1.9326,-1.9336,-1.9341,-1.9342,-1.9342,-1.9338,-1.9334,-1.9336,-1.9336,-1.9336,-1.9336,-1.9336,0,-1.8655,-1.8695,-1.8738,-1.8802,-1.8839,-1.8866,-1.8918,-1.8947,-1.8988,-1.9035,-1.9076,-1.913,-1.9176,-1.9229,-1.9278,-1.9297,-1.9312,-1.9308,-1.9306,-1.9313,-1.9327,-1.9319,-1.9295,-1.9295,-1.9295,-1.9295,-1.9295,-1.9295,-1.8651,-1.8694,-1.8726,-1.8789,-1.8829,-1.8877,-1.8904,-1.8942,-1.898,-1.9039,-1.9078,-1.9114,-1.9163,-1.9216,-1.9258,-1.9273,-1.9288,-1.928,-1.9298,-1.9309,-1.9313,-1.9316,-1.9309,-1.9283,-1.9283,-1.9281,-1.9281,-1.9281]}]]